owner,sensor,date,latitude,longitude,vertical_datum,sea_water_practical_salinity,qcFlag 
TABS,ioos:station:wmo:42049:1,2014-01-01T00:00:00Z,28.3507,-96.0058,2.0,34.9731,11111222 
TABS,ioos:station:wmo:42049:1,2014-01-01T00:30:00Z,28.3507,-96.0058,2.0,34.9646,11111222 
TABS,ioos:station:wmo:42049:1,2014-01-01T01:00:00Z,28.3507,-96.0058,2.0,34.9514,11111222 
TABS,ioos:station:wmo:42049:1,2014-01-01T01:30:00Z,28.3507,-96.0058,2.0,34.9259,11111222 
TABS,ioos:station:wmo:42049:1,2014-01-01T02:00:00Z,28.3507,-96.0058,2.0,34.9951,11111222 
TABS,ioos:station:wmo:42049:1,2014-01-01T02:30:00Z,28.3507,-96.0058,2.0,35.0512,11111222 
TABS,ioos:station:wmo:42049:1,2014-01-01T03:00:00Z,28.3507,-96.0058,2.0,35.1584,11111222 
TABS,ioos:station:wmo:42049:1,2014-01-01T03:30:00Z,28.3507,-96.0058,2.0,35.8457,11111222 
TABS,ioos:station:wmo:42049:1,2014-01-01T04:00:00Z,28.3507,-96.0058,2.0,35.9679,11111222 
TABS,ioos:station:wmo:42049:1,2014-01-01T04:30:00Z,28.3507,-96.0058,2.0,35.9351,11111222 
TABS,ioos:station:wmo:42049:1,2014-01-01T05:00:00Z,28.3507,-96.0058,2.0,35.9996,11111222 
TABS,ioos:station:wmo:42049:1,2014-01-01T05:30:00Z,28.3507,-96.0058,2.0,36.013,11111222 
TABS,ioos:station:wmo:42049:1,2014-01-01T06:00:00Z,28.3507,-96.0058,2.0,35.9953,11111222 
TABS,ioos:station:wmo:42049:1,2014-01-01T06:30:00Z,28.3507,-96.0058,2.0,35.8081,11111222 
TABS,ioos:station:wmo:42049:1,2014-01-01T07:00:00Z,28.3507,-96.0058,2.0,35.8919,11111222 
TABS,ioos:station:wmo:42049:1,2014-01-01T07:30:00Z,28.3507,-96.0058,2.0,35.8851,11111222 
TABS,ioos:station:wmo:42049:1,2014-01-01T08:00:00Z,28.3507,-96.0058,2.0,35.9181,11111222 
TABS,ioos:station:wmo:42049:1,2014-01-01T08:30:00Z,28.3507,-96.0058,2.0,35.8451,11111222 
TABS,ioos:station:wmo:42049:1,2014-01-01T09:00:00Z,28.3507,-96.0058,2.0,35.8415,11111222 
TABS,ioos:station:wmo:42049:1,2014-01-01T09:30:00Z,28.3507,-96.0058,2.0,35.8715,11111222 
TABS,ioos:station:wmo:42049:1,2014-01-01T10:00:00Z,28.3507,-96.0058,2.0,35.8057,11111222 
TABS,ioos:station:wmo:42049:1,2014-01-01T10:30:00Z,28.3507,-96.0058,2.0,35.7549,11111222 
TABS,ioos:station:wmo:42049:1,2014-01-01T11:00:00Z,28.3507,-96.0058,2.0,36.1521,11111222 
TABS,ioos:station:wmo:42049:1,2014-01-01T11:30:00Z,28.3507,-96.0058,2.0,36.2087,11111222 
TABS,ioos:station:wmo:42049:1,2014-01-01T12:00:00Z,28.3507,-96.0058,2.0,36.2371,11111222 
TABS,ioos:station:wmo:42049:1,2014-01-01T12:30:00Z,28.3507,-96.0058,2.0,36.1975,11111222 
TABS,ioos:station:wmo:42049:1,2014-01-01T13:00:00Z,28.3507,-96.0058,2.0,36.191,11111222 
TABS,ioos:station:wmo:42049:1,2014-01-01T13:30:00Z,28.3507,-96.0058,2.0,36.198,11111222 
TABS,ioos:station:wmo:42049:1,2014-01-01T14:00:00Z,28.3507,-96.0058,2.0,36.2652,11111222 
TABS,ioos:station:wmo:42049:1,2014-01-01T14:30:00Z,28.3507,-96.0058,2.0,36.2669,11111222 
TABS,ioos:station:wmo:42049:1,2014-01-01T15:00:00Z,28.3507,-96.0058,2.0,36.2747,11111222 
TABS,ioos:station:wmo:42049:1,2014-01-01T15:30:00Z,28.3507,-96.0058,2.0,36.28,11111222 
TABS,ioos:station:wmo:42049:1,2014-01-01T16:00:00Z,28.3507,-96.0058,2.0,36.2878,11111222 
TABS,ioos:station:wmo:42049:1,2014-01-01T16:30:00Z,28.3507,-96.0058,2.0,36.2911,11111222 
TABS,ioos:station:wmo:42049:1,2014-01-01T17:00:00Z,28.3507,-96.0058,2.0,36.2998,11111222 
TABS,ioos:station:wmo:42049:1,2014-01-01T17:30:00Z,28.3507,-96.0058,2.0,36.3043,11111222 
TABS,ioos:station:wmo:42049:1,2014-01-01T18:00:00Z,28.3507,-96.0058,2.0,36.304,11111222 
TABS,ioos:station:wmo:42049:1,2014-01-01T18:30:00Z,28.3507,-96.0058,2.0,36.3036,11111222 
TABS,ioos:station:wmo:42049:1,2014-01-01T19:00:00Z,28.3507,-96.0058,2.0,36.303,11111222 
TABS,ioos:station:wmo:42049:1,2014-01-01T19:30:00Z,28.3507,-96.0058,2.0,36.3065,11111222 
TABS,ioos:station:wmo:42049:1,2014-01-01T20:00:00Z,28.3507,-96.0058,2.0,36.3055,11111222 
TABS,ioos:station:wmo:42049:1,2014-01-01T20:30:00Z,28.3507,-96.0058,2.0,36.3069,11111222 
TABS,ioos:station:wmo:42049:1,2014-01-01T21:00:00Z,28.3507,-96.0058,2.0,36.3037,11111222 
TABS,ioos:station:wmo:42049:1,2014-01-01T21:30:00Z,28.3507,-96.0058,2.0,36.2997,11111222 
TABS,ioos:station:wmo:42049:1,2014-01-01T22:00:00Z,28.3507,-96.0058,2.0,36.299,11111222 
TABS,ioos:station:wmo:42049:1,2014-01-01T22:30:00Z,28.3507,-96.0058,2.0,36.304,11111222 
TABS,ioos:station:wmo:42049:1,2014-01-01T23:00:00Z,28.3507,-96.0058,2.0,36.3099,11111222 
TABS,ioos:station:wmo:42049:1,2014-01-01T23:30:00Z,28.3507,-96.0058,2.0,36.3143,11111222 
TABS,ioos:station:wmo:42049:1,2014-01-02T00:00:00Z,28.3507,-96.0058,2.0,36.3231,11111222 
TABS,ioos:station:wmo:42049:1,2014-01-02T00:30:00Z,28.3507,-96.0058,2.0,36.3261,11111222 
TABS,ioos:station:wmo:42049:1,2014-01-02T01:00:00Z,28.3507,-96.0058,2.0,36.3402,11111222 
TABS,ioos:station:wmo:42049:1,2014-01-02T01:30:00Z,28.3507,-96.0058,2.0,36.3449,11111222 
TABS,ioos:station:wmo:42049:1,2014-01-02T02:00:00Z,28.3507,-96.0058,2.0,36.3472,11111222 
TABS,ioos:station:wmo:42049:1,2014-01-02T02:30:00Z,28.3507,-96.0058,2.0,36.3446,11111222 
TABS,ioos:station:wmo:42049:1,2014-01-02T03:00:00Z,28.3507,-96.0058,2.0,36.3444,11111222 
TABS,ioos:station:wmo:42049:1,2014-01-02T03:30:00Z,28.3507,-96.0058,2.0,36.3431,11111222 
TABS,ioos:station:wmo:42049:1,2014-01-02T04:00:00Z,28.3507,-96.0058,2.0,36.3444,11111222 
TABS,ioos:station:wmo:42049:1,2014-01-02T04:30:00Z,28.3507,-96.0058,2.0,36.3461,11111222 
TABS,ioos:station:wmo:42049:1,2014-01-02T05:00:00Z,28.3507,-96.0058,2.0,36.3465,11111222 
TABS,ioos:station:wmo:42049:1,2014-01-02T05:30:00Z,28.3507,-96.0058,2.0,36.3458,11111222 
TABS,ioos:station:wmo:42049:1,2014-01-02T06:00:00Z,28.3507,-96.0058,2.0,36.3454,11111222 
TABS,ioos:station:wmo:42049:1,2014-01-02T06:30:00Z,28.3507,-96.0058,2.0,36.3388,11111222 
TABS,ioos:station:wmo:42049:1,2014-01-02T07:00:00Z,28.3507,-96.0058,2.0,36.3432,11111222 
TABS,ioos:station:wmo:42049:1,2014-01-02T07:30:00Z,28.3507,-96.0058,2.0,36.3433,11111222 
TABS,ioos:station:wmo:42049:1,2014-01-02T08:00:00Z,28.3507,-96.0058,2.0,36.3412,11111222 
TABS,ioos:station:wmo:42049:1,2014-01-02T08:30:00Z,28.3507,-96.0058,2.0,36.3411,11111222 
TABS,ioos:station:wmo:42049:1,2014-01-02T09:00:00Z,28.3507,-96.0058,2.0,36.3408,11111222 
TABS,ioos:station:wmo:42049:1,2014-01-02T09:30:00Z,28.3507,-96.0058,2.0,36.3467,11111222 
TABS,ioos:station:wmo:42049:1,2014-01-02T10:00:00Z,28.3507,-96.0058,2.0,36.3486,11111222 
TABS,ioos:station:wmo:42049:1,2014-01-02T10:30:00Z,28.3507,-96.0058,2.0,36.3324,11111222 
TABS,ioos:station:wmo:42049:1,2014-01-02T11:00:00Z,28.3507,-96.0058,2.0,36.3304,11111222 
TABS,ioos:station:wmo:42049:1,2014-01-02T11:30:00Z,28.3507,-96.0058,2.0,36.329,11111222 
TABS,ioos:station:wmo:42049:1,2014-01-02T12:00:00Z,28.3507,-96.0058,2.0,36.3149,11111222 
TABS,ioos:station:wmo:42049:1,2014-01-02T12:30:00Z,28.3507,-96.0058,2.0,36.3121,11111222 
TABS,ioos:station:wmo:42049:1,2014-01-02T13:00:00Z,28.3507,-96.0058,2.0,36.3089,11111222 
TABS,ioos:station:wmo:42049:1,2014-01-02T13:30:00Z,28.3507,-96.0058,2.0,36.2763,11111222 
TABS,ioos:station:wmo:42049:1,2014-01-02T14:00:00Z,28.3507,-96.0058,2.0,36.2332,11111222 
TABS,ioos:station:wmo:42049:1,2014-01-02T14:30:00Z,28.3507,-96.0058,2.0,36.2095,11111222 
TABS,ioos:station:wmo:42049:1,2014-01-02T15:00:00Z,28.3507,-96.0058,2.0,36.1902,11111222 
TABS,ioos:station:wmo:42049:1,2014-01-02T15:30:00Z,28.3507,-96.0058,2.0,36.1753,11111222 
TABS,ioos:station:wmo:42049:1,2014-01-02T16:00:00Z,28.3507,-96.0058,2.0,36.1776,11111222 
TABS,ioos:station:wmo:42049:1,2014-01-02T16:30:00Z,28.3507,-96.0058,2.0,36.1806,11111222 
TABS,ioos:station:wmo:42049:1,2014-01-02T17:00:00Z,28.3507,-96.0058,2.0,36.1584,11111222 
TABS,ioos:station:wmo:42049:1,2014-01-02T17:30:00Z,28.3507,-96.0058,2.0,36.1655,11111222 
TABS,ioos:station:wmo:42049:1,2014-01-02T18:00:00Z,28.3507,-96.0058,2.0,36.121,11111222 
TABS,ioos:station:wmo:42049:1,2014-01-02T18:30:00Z,28.3507,-96.0058,2.0,36.1061,11111222 
TABS,ioos:station:wmo:42049:1,2014-01-02T19:00:00Z,28.3507,-96.0058,2.0,36.1111,11111222 
TABS,ioos:station:wmo:42049:1,2014-01-02T19:30:00Z,28.3507,-96.0058,2.0,36.1378,11111222 
TABS,ioos:station:wmo:42049:1,2014-01-02T20:00:00Z,28.3507,-96.0058,2.0,36.1897,11111222 
TABS,ioos:station:wmo:42049:1,2014-01-02T20:30:00Z,28.3507,-96.0058,2.0,36.2276,11111222 
TABS,ioos:station:wmo:42049:1,2014-01-02T21:00:00Z,28.3507,-96.0058,2.0,36.216,11111222 
TABS,ioos:station:wmo:42049:1,2014-01-02T21:30:00Z,28.3507,-96.0058,2.0,36.2132,11111222 
TABS,ioos:station:wmo:42049:1,2014-01-02T22:00:00Z,28.3507,-96.0058,2.0,36.1981,11111222 
TABS,ioos:station:wmo:42049:1,2014-01-02T22:30:00Z,28.3507,-96.0058,2.0,36.2114,11111222 
TABS,ioos:station:wmo:42049:1,2014-01-02T23:00:00Z,28.3507,-96.0058,2.0,36.201,11111222 
TABS,ioos:station:wmo:42049:1,2014-01-02T23:30:00Z,28.3507,-96.0058,2.0,36.1797,11111222 
TABS,ioos:station:wmo:42049:1,2014-01-03T00:00:00Z,28.3507,-96.0058,2.0,36.1649,11111222 
TABS,ioos:station:wmo:42049:1,2014-01-03T00:30:00Z,28.3507,-96.0058,2.0,36.1645,11111222 
TABS,ioos:station:wmo:42049:1,2014-01-03T01:00:00Z,28.3507,-96.0058,2.0,36.1622,11111222 
TABS,ioos:station:wmo:42049:1,2014-01-03T01:30:00Z,28.3507,-96.0058,2.0,36.1335,11111222 
TABS,ioos:station:wmo:42049:1,2014-01-03T02:00:00Z,28.3507,-96.0058,2.0,36.1607,11111222 
TABS,ioos:station:wmo:42049:1,2014-01-03T02:30:00Z,28.3507,-96.0058,2.0,36.1918,11111222 
TABS,ioos:station:wmo:42049:1,2014-01-03T03:00:00Z,28.3507,-96.0058,2.0,36.2313,11111222 
TABS,ioos:station:wmo:42049:1,2014-01-03T03:30:00Z,28.3507,-96.0058,2.0,36.2456,11111222 
TABS,ioos:station:wmo:42049:1,2014-01-03T04:00:00Z,28.3507,-96.0058,2.0,36.235,11111222 
TABS,ioos:station:wmo:42049:1,2014-01-03T04:30:00Z,28.3507,-96.0058,2.0,36.1959,11111222 
TABS,ioos:station:wmo:42049:1,2014-01-03T05:00:00Z,28.3507,-96.0058,2.0,35.2205,11111222 
TABS,ioos:station:wmo:42049:1,2014-01-03T05:30:00Z,28.3507,-96.0058,2.0,35.0233,11111222 
TABS,ioos:station:wmo:42049:1,2014-01-03T06:00:00Z,28.3507,-96.0058,2.0,35.2248,11111222 
TABS,ioos:station:wmo:42049:1,2014-01-03T06:30:00Z,28.3507,-96.0058,2.0,34.599,11111222 
TABS,ioos:station:wmo:42049:1,2014-01-03T07:00:00Z,28.3507,-96.0058,2.0,34.672,11111222 
TABS,ioos:station:wmo:42049:1,2014-01-03T07:30:00Z,28.3507,-96.0058,2.0,34.8507,11111222 
TABS,ioos:station:wmo:42049:1,2014-01-03T08:00:00Z,28.3507,-96.0058,2.0,35.0566,11111222 
TABS,ioos:station:wmo:42049:1,2014-01-03T08:30:00Z,28.3507,-96.0058,2.0,35.2441,11111222 
TABS,ioos:station:wmo:42049:1,2014-01-03T09:00:00Z,28.3507,-96.0058,2.0,35.3376,11111222 
TABS,ioos:station:wmo:42049:1,2014-01-03T09:30:00Z,28.3507,-96.0058,2.0,35.4328,11111222 
TABS,ioos:station:wmo:42049:1,2014-01-03T10:00:00Z,28.3507,-96.0058,2.0,35.365,11111222 
TABS,ioos:station:wmo:42049:1,2014-01-03T10:30:00Z,28.3507,-96.0058,2.0,35.213,11111222 
TABS,ioos:station:wmo:42049:1,2014-01-03T11:00:00Z,28.3507,-96.0058,2.0,35.2333,11111222 
TABS,ioos:station:wmo:42049:1,2014-01-03T11:30:00Z,28.3507,-96.0058,2.0,35.2959,11111222 
TABS,ioos:station:wmo:42049:1,2014-01-03T12:00:00Z,28.3507,-96.0058,2.0,35.3997,11111222 
TABS,ioos:station:wmo:42049:1,2014-01-03T12:30:00Z,28.3507,-96.0058,2.0,35.4289,11111222 
TABS,ioos:station:wmo:42049:1,2014-01-03T13:00:00Z,28.3507,-96.0058,2.0,35.3972,11111222 
TABS,ioos:station:wmo:42049:1,2014-01-03T13:30:00Z,28.3507,-96.0058,2.0,35.4396,11111222 
TABS,ioos:station:wmo:42049:1,2014-01-03T14:00:00Z,28.3507,-96.0058,2.0,35.3906,11111222 
TABS,ioos:station:wmo:42049:1,2014-01-03T14:30:00Z,28.3507,-96.0058,2.0,35.0982,11111222 
TABS,ioos:station:wmo:42049:1,2014-01-03T15:00:00Z,28.3507,-96.0058,2.0,34.924,11111222 
TABS,ioos:station:wmo:42049:1,2014-01-03T15:30:00Z,28.3507,-96.0058,2.0,34.9699,11111222 
TABS,ioos:station:wmo:42049:1,2014-01-03T16:00:00Z,28.3507,-96.0058,2.0,34.7785,11111222 
TABS,ioos:station:wmo:42049:1,2014-01-03T16:30:00Z,28.3507,-96.0058,2.0,34.747,11111222 
TABS,ioos:station:wmo:42049:1,2014-01-03T17:00:00Z,28.3507,-96.0058,2.0,34.7488,11111222 
TABS,ioos:station:wmo:42049:1,2014-01-03T17:30:00Z,28.3507,-96.0058,2.0,34.6047,11111222 
TABS,ioos:station:wmo:42049:1,2014-01-03T18:00:00Z,28.3507,-96.0058,2.0,34.6634,11111222 
TABS,ioos:station:wmo:42049:1,2014-01-03T18:30:00Z,28.3507,-96.0058,2.0,34.6314,11111222 
TABS,ioos:station:wmo:42049:1,2014-01-03T19:00:00Z,28.3507,-96.0058,2.0,34.6525,11111222 
TABS,ioos:station:wmo:42049:1,2014-01-03T19:30:00Z,28.3507,-96.0058,2.0,34.6335,11111222 
TABS,ioos:station:wmo:42049:1,2014-01-03T20:00:00Z,28.3507,-96.0058,2.0,34.6412,11111222 
TABS,ioos:station:wmo:42049:1,2014-01-03T20:30:00Z,28.3507,-96.0058,2.0,34.6429,11111222 
TABS,ioos:station:wmo:42049:1,2014-01-03T21:00:00Z,28.3507,-96.0058,2.0,34.8883,11111222 
TABS,ioos:station:wmo:42049:1,2014-01-03T21:30:00Z,28.3507,-96.0058,2.0,34.9579,11111222 
TABS,ioos:station:wmo:42049:1,2014-01-03T22:00:00Z,28.3507,-96.0058,2.0,34.955,11111222 
TABS,ioos:station:wmo:42049:1,2014-01-03T22:30:00Z,28.3507,-96.0058,2.0,34.936,11111222 
TABS,ioos:station:wmo:42049:1,2014-01-03T23:00:00Z,28.3507,-96.0058,2.0,34.942,11111222 
TABS,ioos:station:wmo:42049:1,2014-01-03T23:30:00Z,28.3507,-96.0058,2.0,35.0067,11111222 
TABS,ioos:station:wmo:42049:1,2014-01-04T00:00:00Z,28.3507,-96.0058,2.0,35.1216,11111222 
TABS,ioos:station:wmo:42049:1,2014-01-04T00:30:00Z,28.3507,-96.0058,2.0,35.1189,11111222 
TABS,ioos:station:wmo:42049:1,2014-01-04T01:00:00Z,28.3507,-96.0058,2.0,35.0734,11111222 
TABS,ioos:station:wmo:42049:1,2014-01-04T01:30:00Z,28.3507,-96.0058,2.0,35.159,11111222 
TABS,ioos:station:wmo:42049:1,2014-01-04T02:00:00Z,28.3507,-96.0058,2.0,35.1992,11111222 
TABS,ioos:station:wmo:42049:1,2014-01-04T02:30:00Z,28.3507,-96.0058,2.0,35.1781,11111222 
TABS,ioos:station:wmo:42049:1,2014-01-04T03:00:00Z,28.3507,-96.0058,2.0,35.1324,11111222 
TABS,ioos:station:wmo:42049:1,2014-01-04T03:30:00Z,28.3507,-96.0058,2.0,35.2161,11111222 
TABS,ioos:station:wmo:42049:1,2014-01-04T04:00:00Z,28.3507,-96.0058,2.0,35.545,11111222 
TABS,ioos:station:wmo:42049:1,2014-01-04T04:30:00Z,28.3507,-96.0058,2.0,35.5998,11111222 
TABS,ioos:station:wmo:42049:1,2014-01-04T05:00:00Z,28.3507,-96.0058,2.0,35.6324,11111222 
TABS,ioos:station:wmo:42049:1,2014-01-04T05:30:00Z,28.3507,-96.0058,2.0,35.5904,11111222 
TABS,ioos:station:wmo:42049:1,2014-01-04T06:00:00Z,28.3507,-96.0058,2.0,35.5642,11111222 
TABS,ioos:station:wmo:42049:1,2014-01-04T06:30:00Z,28.3507,-96.0058,2.0,35.616,11111222 
TABS,ioos:station:wmo:42049:1,2014-01-04T07:00:00Z,28.3507,-96.0058,2.0,35.6069,11111222 
TABS,ioos:station:wmo:42049:1,2014-01-04T07:30:00Z,28.3507,-96.0058,2.0,35.7254,11111222 
TABS,ioos:station:wmo:42049:1,2014-01-04T08:00:00Z,28.3507,-96.0058,2.0,36.0049,11111222 
TABS,ioos:station:wmo:42049:1,2014-01-04T08:30:00Z,28.3507,-96.0058,2.0,36.0929,11111222 
TABS,ioos:station:wmo:42049:1,2014-01-04T09:00:00Z,28.3507,-96.0058,2.0,36.1079,11111222 
TABS,ioos:station:wmo:42049:1,2014-01-04T09:30:00Z,28.3507,-96.0058,2.0,36.1411,11111222 
TABS,ioos:station:wmo:42049:1,2014-01-04T10:00:00Z,28.3507,-96.0058,2.0,36.1736,11111222 
TABS,ioos:station:wmo:42049:1,2014-01-04T10:30:00Z,28.3507,-96.0058,2.0,36.195,11111222 
TABS,ioos:station:wmo:42049:1,2014-01-04T11:00:00Z,28.3507,-96.0058,2.0,36.2042,11111222 
TABS,ioos:station:wmo:42049:1,2014-01-04T11:30:00Z,28.3507,-96.0058,2.0,35.3475,11111222 
TABS,ioos:station:wmo:42049:1,2014-01-04T12:00:00Z,28.3507,-96.0058,2.0,35.1834,11111222 
TABS,ioos:station:wmo:42049:1,2014-01-04T12:30:00Z,28.3507,-96.0058,2.0,35.1343,11111222 
TABS,ioos:station:wmo:42049:1,2014-01-04T13:00:00Z,28.3507,-96.0058,2.0,35.0851,11111222 
TABS,ioos:station:wmo:42049:1,2014-01-04T13:30:00Z,28.3507,-96.0058,2.0,35.0695,11111222 
TABS,ioos:station:wmo:42049:1,2014-01-04T14:00:00Z,28.3507,-96.0058,2.0,35.0317,11111222 
TABS,ioos:station:wmo:42049:1,2014-01-04T14:30:00Z,28.3507,-96.0058,2.0,34.9417,11111222 
TABS,ioos:station:wmo:42049:1,2014-01-04T15:00:00Z,28.3507,-96.0058,2.0,34.9337,11111222 
TABS,ioos:station:wmo:42049:1,2014-01-04T15:30:00Z,28.3507,-96.0058,2.0,34.8868,11111222 
TABS,ioos:station:wmo:42049:1,2014-01-04T16:00:00Z,28.3507,-96.0058,2.0,34.8734,11111222 
TABS,ioos:station:wmo:42049:1,2014-01-04T16:30:00Z,28.3507,-96.0058,2.0,34.7351,11111222 
TABS,ioos:station:wmo:42049:1,2014-01-04T17:00:00Z,28.3507,-96.0058,2.0,34.7467,11111222 
TABS,ioos:station:wmo:42049:1,2014-01-04T17:30:00Z,28.3507,-96.0058,2.0,34.7459,11111222 
TABS,ioos:station:wmo:42049:1,2014-01-04T18:00:00Z,28.3507,-96.0058,2.0,34.7367,11111222 
TABS,ioos:station:wmo:42049:1,2014-01-04T18:30:00Z,28.3507,-96.0058,2.0,34.5972,11111222 
TABS,ioos:station:wmo:42049:1,2014-01-04T19:00:00Z,28.3507,-96.0058,2.0,34.5334,11111222 
TABS,ioos:station:wmo:42049:1,2014-01-04T19:30:00Z,28.3507,-96.0058,2.0,34.5082,11111222 
TABS,ioos:station:wmo:42049:1,2014-01-04T20:00:00Z,28.3507,-96.0058,2.0,34.4988,11111222 
TABS,ioos:station:wmo:42049:1,2014-01-04T20:30:00Z,28.3507,-96.0058,2.0,34.4837,11111222 
TABS,ioos:station:wmo:42049:1,2014-01-04T21:00:00Z,28.3507,-96.0058,2.0,34.4827,11111222 
TABS,ioos:station:wmo:42049:1,2014-01-04T21:30:00Z,28.3507,-96.0058,2.0,34.4789,11111222 
TABS,ioos:station:wmo:42049:1,2014-01-04T22:00:00Z,28.3507,-96.0058,2.0,34.4886,11111222 
TABS,ioos:station:wmo:42049:1,2014-01-04T22:30:00Z,28.3507,-96.0058,2.0,34.4803,11111222 
TABS,ioos:station:wmo:42049:1,2014-01-04T23:00:00Z,28.3507,-96.0058,2.0,34.4934,11111222 
TABS,ioos:station:wmo:42049:1,2014-01-04T23:30:00Z,28.3507,-96.0058,2.0,34.5161,11111222 
TABS,ioos:station:wmo:42049:1,2014-01-05T00:00:00Z,28.3507,-96.0058,2.0,34.5624,11111222 
TABS,ioos:station:wmo:42049:1,2014-01-05T00:30:00Z,28.3507,-96.0058,2.0,34.5842,11111222 
TABS,ioos:station:wmo:42049:1,2014-01-05T01:00:00Z,28.3507,-96.0058,2.0,34.6139,11111222 
TABS,ioos:station:wmo:42049:1,2014-01-05T01:30:00Z,28.3507,-96.0058,2.0,34.6483,11111222 
TABS,ioos:station:wmo:42049:1,2014-01-05T02:00:00Z,28.3507,-96.0058,2.0,34.666,11111222 
TABS,ioos:station:wmo:42049:1,2014-01-05T02:30:00Z,28.3507,-96.0058,2.0,34.6652,11111222 
TABS,ioos:station:wmo:42049:1,2014-01-05T03:00:00Z,28.3507,-96.0058,2.0,34.6544,11111222 
TABS,ioos:station:wmo:42049:1,2014-01-05T03:30:00Z,28.3507,-96.0058,2.0,34.6557,11111222 
TABS,ioos:station:wmo:42049:1,2014-01-05T04:00:00Z,28.3507,-96.0058,2.0,34.6519,11111222 
TABS,ioos:station:wmo:42049:1,2014-01-05T04:30:00Z,28.3507,-96.0058,2.0,34.6737,11111222 
TABS,ioos:station:wmo:42049:1,2014-01-05T05:00:00Z,28.3507,-96.0058,2.0,34.6852,11111222 
TABS,ioos:station:wmo:42049:1,2014-01-05T05:30:00Z,28.3507,-96.0058,2.0,34.7148,11111222 
TABS,ioos:station:wmo:42049:1,2014-01-05T06:00:00Z,28.3507,-96.0058,2.0,34.7146,11111222 
TABS,ioos:station:wmo:42049:1,2014-01-05T06:30:00Z,28.3507,-96.0058,2.0,34.7117,11111222 
TABS,ioos:station:wmo:42049:1,2014-01-05T07:00:00Z,28.3507,-96.0058,2.0,34.6804,11111222 
TABS,ioos:station:wmo:42049:1,2014-01-05T07:30:00Z,28.3507,-96.0058,2.0,34.6901,11111222 
TABS,ioos:station:wmo:42049:1,2014-01-05T08:00:00Z,28.3507,-96.0058,2.0,34.691,11111222 
TABS,ioos:station:wmo:42049:1,2014-01-05T08:30:00Z,28.3507,-96.0058,2.0,34.6771,11111222 
TABS,ioos:station:wmo:42049:1,2014-01-05T09:00:00Z,28.3507,-96.0058,2.0,34.6753,11111222 
TABS,ioos:station:wmo:42049:1,2014-01-05T09:30:00Z,28.3507,-96.0058,2.0,34.6198,11111222 
TABS,ioos:station:wmo:42049:1,2014-01-05T10:00:00Z,28.3507,-96.0058,2.0,34.5726,11111222 
TABS,ioos:station:wmo:42049:1,2014-01-05T10:30:00Z,28.3507,-96.0058,2.0,34.573,11111222 
TABS,ioos:station:wmo:42049:1,2014-01-05T11:00:00Z,28.3507,-96.0058,2.0,34.3104,11111222 
TABS,ioos:station:wmo:42049:1,2014-01-05T11:30:00Z,28.3507,-96.0058,2.0,34.1318,11111222 
TABS,ioos:station:wmo:42049:1,2014-01-05T12:00:00Z,28.3507,-96.0058,2.0,33.8101,11111222 
TABS,ioos:station:wmo:42049:1,2014-01-05T12:30:00Z,28.3507,-96.0058,2.0,33.4655,11111222 
TABS,ioos:station:wmo:42049:1,2014-01-05T13:00:00Z,28.3507,-96.0058,2.0,33.5018,11111222 
TABS,ioos:station:wmo:42049:1,2014-01-05T13:30:00Z,28.3507,-96.0058,2.0,33.5548,11111222 
TABS,ioos:station:wmo:42049:1,2014-01-05T14:00:00Z,28.3507,-96.0058,2.0,33.6519,11111222 
TABS,ioos:station:wmo:42049:1,2014-01-05T14:30:00Z,28.3507,-96.0058,2.0,33.556,11111222 
TABS,ioos:station:wmo:42049:1,2014-01-05T15:00:00Z,28.3507,-96.0058,2.0,33.3948,11111222 
TABS,ioos:station:wmo:42049:1,2014-01-05T15:30:00Z,28.3507,-96.0058,2.0,33.2075,11111222 
TABS,ioos:station:wmo:42049:1,2014-01-05T16:00:00Z,28.3507,-96.0058,2.0,33.2189,11111222 
TABS,ioos:station:wmo:42049:1,2014-01-05T16:30:00Z,28.3507,-96.0058,2.0,33.2246,11111222 
TABS,ioos:station:wmo:42049:1,2014-01-05T17:00:00Z,28.3507,-96.0058,2.0,33.2659,11111222 
TABS,ioos:station:wmo:42049:1,2014-01-05T17:30:00Z,28.3507,-96.0058,2.0,33.4419,11111222 
TABS,ioos:station:wmo:42049:1,2014-01-05T18:00:00Z,28.3507,-96.0058,2.0,33.9318,11111222 
TABS,ioos:station:wmo:42049:1,2014-01-05T18:30:00Z,28.3507,-96.0058,2.0,34.2221,11111222 
TABS,ioos:station:wmo:42049:1,2014-01-05T19:00:00Z,28.3507,-96.0058,2.0,34.375,11111222 
TABS,ioos:station:wmo:42049:1,2014-01-05T19:30:00Z,28.3507,-96.0058,2.0,34.6134,11111222 
TABS,ioos:station:wmo:42049:1,2014-01-05T20:00:00Z,28.3507,-96.0058,2.0,34.7055,11111222 
TABS,ioos:station:wmo:42049:1,2014-01-05T20:30:00Z,28.3507,-96.0058,2.0,34.8206,11111222 
TABS,ioos:station:wmo:42049:1,2014-01-05T21:00:00Z,28.3507,-96.0058,2.0,34.8447,11111222 
TABS,ioos:station:wmo:42049:1,2014-01-05T21:30:00Z,28.3507,-96.0058,2.0,34.8803,11111222 
TABS,ioos:station:wmo:42049:1,2014-01-05T22:00:00Z,28.3507,-96.0058,2.0,34.959,11111222 
TABS,ioos:station:wmo:42049:1,2014-01-05T22:30:00Z,28.3507,-96.0058,2.0,34.9689,11111222 
TABS,ioos:station:wmo:42049:1,2014-01-05T23:00:00Z,28.3507,-96.0058,2.0,34.7672,11111222 
TABS,ioos:station:wmo:42049:1,2014-01-05T23:30:00Z,28.3507,-96.0058,2.0,34.8566,11111222 
TABS,ioos:station:wmo:42049:1,2014-01-06T00:00:00Z,28.3507,-96.0058,2.0,34.7669,11111222 
TABS,ioos:station:wmo:42049:1,2014-01-06T00:30:00Z,28.3507,-96.0058,2.0,34.8087,11111222 
TABS,ioos:station:wmo:42049:1,2014-01-06T01:00:00Z,28.3507,-96.0058,2.0,34.944,11111222 
TABS,ioos:station:wmo:42049:1,2014-01-06T01:30:00Z,28.3507,-96.0058,2.0,35.0525,11111222 
TABS,ioos:station:wmo:42049:1,2014-01-06T02:00:00Z,28.3507,-96.0058,2.0,35.1358,11111222 
TABS,ioos:station:wmo:42049:1,2014-01-06T02:30:00Z,28.3507,-96.0058,2.0,35.2254,11111222 
TABS,ioos:station:wmo:42049:1,2014-01-06T03:00:00Z,28.3507,-96.0058,2.0,34.9908,11111222 
TABS,ioos:station:wmo:42049:1,2014-01-06T03:30:00Z,28.3507,-96.0058,2.0,35.0003,11111222 
TABS,ioos:station:wmo:42049:1,2014-01-06T04:00:00Z,28.3507,-96.0058,2.0,34.8883,11111222 
TABS,ioos:station:wmo:42049:1,2014-01-06T04:30:00Z,28.3507,-96.0058,2.0,34.9344,11111222 
TABS,ioos:station:wmo:42049:1,2014-01-06T05:00:00Z,28.3507,-96.0058,2.0,34.8728,11111222 
TABS,ioos:station:wmo:42049:1,2014-01-06T05:30:00Z,28.3507,-96.0058,2.0,34.7319,11111222 
TABS,ioos:station:wmo:42049:1,2014-01-06T06:00:00Z,28.3507,-96.0058,2.0,34.7773,11111222 
TABS,ioos:station:wmo:42049:1,2014-01-06T06:30:00Z,28.3507,-96.0058,2.0,34.7728,11111222 
TABS,ioos:station:wmo:42049:1,2014-01-06T07:00:00Z,28.3507,-96.0058,2.0,34.7826,11111222 
TABS,ioos:station:wmo:42049:1,2014-01-06T07:30:00Z,28.3507,-96.0058,2.0,34.8521,11111222 
TABS,ioos:station:wmo:42049:1,2014-01-06T08:00:00Z,28.3507,-96.0058,2.0,34.9786,11111222 
TABS,ioos:station:wmo:42049:1,2014-01-06T08:30:00Z,28.3507,-96.0058,2.0,35.0891,11111222 
TABS,ioos:station:wmo:42049:1,2014-01-06T09:00:00Z,28.3507,-96.0058,2.0,35.1019,11111222 
TABS,ioos:station:wmo:42049:1,2014-01-06T09:30:00Z,28.3507,-96.0058,2.0,35.0914,11111222 
TABS,ioos:station:wmo:42049:1,2014-01-06T10:00:00Z,28.3507,-96.0058,2.0,35.113,11111222 
TABS,ioos:station:wmo:42049:1,2014-01-06T10:30:00Z,28.3507,-96.0058,2.0,35.1391,11111222 
TABS,ioos:station:wmo:42049:1,2014-01-06T11:00:00Z,28.3507,-96.0058,2.0,35.165,11111222 
TABS,ioos:station:wmo:42049:1,2014-01-06T11:30:00Z,28.3507,-96.0058,2.0,35.1837,11111222 
TABS,ioos:station:wmo:42049:1,2014-01-06T12:00:00Z,28.3507,-96.0058,2.0,35.1745,11111222 
TABS,ioos:station:wmo:42049:1,2014-01-06T12:30:00Z,28.3507,-96.0058,2.0,35.2879,11111222 